VE3DVC Weather Reports


Display with metric or nautical units.
time (UTC)temp
F
wind
direction
speed
MPH
gust
MPH
rain 1hr
in
rain 24hr
in
rain mn
in
humidity
%
barometer
mb
20260903025130 70 0 0.0 0.0 0.00 0.00 0.00 91 1013.0
20260903023930 70 0 0.0 0.0 0.00 0.00 0.00 91 1012.9
20260903022730 70 0 0.0 1.0 0.00 0.00 0.00 91 1013.1
20260903021531 70 0 0.0 1.0 0.00 0.00 0.00 91 1013.4
20260903020330 70 0 0.0 0.0 0.00 0.00 0.00 91 1013.3
20260903012215 70 0 0.0 0.0 0.00 0.00 0.00 91 1013.6
20260903011015 70 0 0.0 0.0 0.00 0.00 0.00 91 1013.1
20260903005815 70 0 0.0 0.0 0.00 0.00 0.00 92 1013.7
20260903004615 70 0 0.0 0.0 0.00 0.00 0.00 92 1013.4
20260902235646 69 0 0.0 1.0 0.00 0.00 0.00 92 1013.7
20260902234445 68 0 0.0 0.0 0.00 0.00 0.00 92 1013.7
20260902233245 68 0 0.0 0.0 0.00 0.00 0.00 92 1013.5
20260902232045 69 0 0.0 2.0 0.00 0.00 0.00 91 1013.3
20260902224005 76 0 0.0 5.0 0.00 0.00 0.00 78 1014.0
20260902222805 79 318 1.0 5.0 0.00 0.00 0.00 83 1014.2
20260902221605 80 0 0.0 2.0 0.00 0.00 0.00 88 1013.2
20260902220405 80 0 0.0 2.0 0.00 0.00 0.00 87 1013.2
20260902215205 80 0 0.0 3.0 0.00 0.00 0.00 88 1012.5
20260902214005 80 0 0.0 3.0 0.00 0.00 0.00 88 1011.7
20260902205519 81 0 0.0 4.0 0.00 0.00 0.00 88 1012.2
20260902204319 81 0 0.0 3.0 0.00 0.00 0.00 88 1012.6
20260902200256 84 0 0.0 3.0 0.00 0.00 0.00 85 1013.6
20260902195057 84 0 0.0 5.0 0.00 0.00 0.00 84 1014.0
20260902193857 85 0 0.0 2.0 0.00 0.00 0.00 83 1014.2
20260902192657 85 0 0.0 1.0 0.00 0.00 0.00 84 1014.2
20260902191457 85 0 0.0 4.0 0.00 0.00 0.00 84 1014.0
20260902190257 85 0 0.0 3.0 0.00 0.00 0.00 84 1014.2
20260902185057 85 0 0.0 2.0 0.00 0.00 0.00 87 1013.9
20260902183857 84 0 0.0 2.0 0.00 0.00 0.00 87 1014.0
20260902182657 84 0 0.0 2.0 0.00 0.00 0.00 88 1013.9
20260902181457 83 0 0.0 6.0 0.00 0.00 0.00 89 1014.1
20260902175116 82 314 1.0 6.0 0.00 0.00 0.00 89 1013.9
20260902173915 81 0 0.0 2.0 0.00 0.00 0.00 90 1014.4
20260902172716 81 0 0.0 5.0 0.00 0.00 0.00 90 1014.6
20260902171515 80 0 0.0 3.0 0.00 0.00 0.00 91 1014.7
20260902170315 79 0 0.0 4.0 0.00 0.00 0.00 92 1014.9
20260902165115 79 0 0.0 4.0 0.00 0.00 0.00 92 1015.1
20260902163330 77 0 0.0 4.0 0.00 0.00 0.00 92 1015.2
20260902162130 77 0 0.0 3.0 0.00 0.00 0.00 91 1015.2
20260902160930 76 0 0.0 3.0 0.00 0.00 0.00 90 1015.4
20260902155731 76 0 0.0 5.0 0.00 0.00 0.00 90 1015.4
20260902154006 75 0 0.0 2.0 0.00 0.00 0.00 90 1015.6
20260902152805 75 0 0.0 3.0 0.00 0.00 0.00 90 1015.5
20260902151606 74 0 0.0 2.0 0.00 0.00 0.00 90 1015.4
20260902150405 74 0 0.0 1.0 0.00 0.00 0.00 90 1015.5
20260902145206 74 0 0.0 2.0 0.00 0.00 0.00 90 1015.4
20260902144007 73 0 0.0 0.0 0.00 0.00 0.00 90 1015.5
20260902142806 73 0 0.0 1.0 0.00 0.00 0.00 90 1015.5
20260902141606 72 0 0.0 0.0 0.00 0.00 0.00 90 1015.4
20260902140406 72 0 0.0 0.0 0.00 0.00 0.00 90 1015.3
20260902135206 72 0 0.0 0.0 0.00 0.00 0.00 90 1015.3
20260902134005 72 0 0.0 0.0 0.00 0.00 0.00 90 1015.3
20260902132806 72 0 0.0 1.0 0.00 0.00 0.00 90 1015.5
20260902131606 72 0 0.0 0.0 0.00 0.00 0.00 90 1015.3
20260902130405 72 0 0.0 1.0 0.00 0.00 0.00 91 1015.3
20260902125206 72 0 0.0 2.0 0.00 0.00 0.00 90 1015.4
20260902124006 71 0 0.0 0.0 0.00 0.00 0.00 91 1015.2
20260902122805 71 0 0.0 2.0 0.00 0.00 0.00 91 1015.1
20260902121605 71 0 0.0 0.0 0.00 0.00 0.00 91 1015.0
20260902120406 71 0 0.0 0.0 0.00 0.00 0.00 91 1014.8
20260902115206 71 0 0.0 0.0 0.00 0.00 0.00 91 1014.6
20260902114006 71 0 0.0 0.0 0.00 0.00 0.00 91 1014.5
20260902111926 71 0 0.0 0.0 0.00 0.00 0.00 91 1014.3
20260902110727 71 0 0.0 0.0 0.00 0.00 0.00 91 1014.4
20260902105526 71 0 0.0 2.0 0.00 0.00 0.00 91 1014.7
20260902104327 73 0 0.0 2.0 0.00 0.00 0.00 90 1014.2
20260902103126 73 0 0.0 1.0 0.00 0.00 0.00 91 1014.3
20260902101927 73 0 0.0 4.0 0.00 0.00 0.00 91 1013.9
20260902100726 73 0 0.0 1.0 0.00 0.00 0.00 90 1014.0
20260902094327 73 0 0.0 0.0 0.00 0.00 0.00 91 1014.0
20260902093127 73 0 0.0 0.0 0.00 0.00 0.00 91 1014.1
20260902091927 72 0 0.0 0.0 0.00 0.00 0.00 91 1013.7
20260902090726 72 0 0.0 0.0 0.00 0.00 0.00 91 1014.0
20260902085527 72 0 0.0 0.0 0.00 0.00 0.00 91 1014.0
20260902084326 72 0 0.0 0.0 0.00 0.00 0.00 91 1014.1
20260902083127 72 0 0.0 0.0 0.00 0.00 0.00 91 1014.5
20260902081927 72 0 0.0 0.0 0.00 0.00 0.00 91 1014.6
20260902080727 72 0 0.0 0.0 0.00 0.00 0.00 91 1014.5
20260902075527 72 0 0.0 0.0 0.00 0.00 0.00 91 1014.6
20260902074326 72 0 0.0 0.0 0.00 0.00 0.00 91 1014.5
20260902073127 71 0 0.0 0.0 0.00 0.00 0.00 91 1014.6
20260902064116 72 0 0.0 0.0 0.00 0.00 0.00 91 1014.6
20260902062916 71 0 0.0 0.0 0.00 0.00 0.00 92 1014.8
20260902061717 71 0 0.0 0.0 0.00 0.00 0.00 92 1015.0
20260902060517 71 0 0.0 0.0 0.00 0.00 0.00 92 1015.0
20260902055317 72 0 0.0 0.0 0.00 0.00 0.00 91 1014.8
20260902054116 72 0 0.0 0.0 0.00 0.00 0.00 92 1015.0
20260902052917 72 0 0.0 0.0 0.00 0.00 0.00 92 1015.0
20260902051716 72 0 0.0 0.0 0.00 0.00 0.00 92 1015.1
20260902050517 72 0 0.0 0.0 0.00 0.00 0.00 92 1014.9
20260902045316 72 0 0.0 0.0 0.00 0.00 0.00 92 1014.9
20260902044116 72 0 0.0 0.0 0.00 0.00 0.00 92 1014.9
20260902042917 72 0 0.0 0.0 0.00 0.00 0.00 92 1015.0
20260902041716 72 0 0.0 0.0 0.00 0.00 0.00 92 1014.9
20260902040517 72 0 0.0 0.0 0.00 0.00 0.00 92 1014.7
20260902035317 72 0 0.0 0.0 0.00 0.00 0.00 92 1014.7
20260902034116 73 0 0.0 0.0 0.00 0.00 0.00 92 1014.7
20260902032917 73 0 0.0 0.0 0.00 0.00 0.00 92 1014.6
20260902031716 73 0 0.0 0.0 0.00 0.00 0.00 92 1014.6
20260902030516 73 0 0.0 0.0 0.00 0.00 0.00 92 1014.6